International Virtual Aviation Organisation

Russian Federation and Kazakhstan MCD

 

Карточка аэропорта URKA

Внимание!
Информация на этой странице в стадии наполнения.
Если вы не увидели какой-то информации, или заметили неточность - пожалуйста сообщите нам!
Спасибо!
Команда RU-STAFF
Название аэропортаВитязево
Название аэропорта (англ.)Vityazevo
Превышение176 ft. (53.6 m.)
Координаты45°0.13200000000012', 37°20.832'
Высота перехода1100m
Эшелон переходаFL050
Коды ответчика2400-2407
Зона ОрВДРостов-на-Дону РПИ (URRV)
Данные METARURKA 281030Z 21007MPS 9999 SCT031 19/07 Q1021 R22/010065 NOSIG RMK QFE761/1015
Проноз погоды (TAF)URKA 280757Z 2809/2909 12003G08MPS 9999 SCT030 TEMPO 2809/2815 17006G11MPS
NOTAMshow/hide NOTAM
AWOS   TABLE

Информация о ВПП

ВПП Длина ВПП (м.) Покрытие Курс ВПП Частота ILS
042500Цементобетон36109.1
222500Цементобетон216 

Диспетчерские позиции

Позывной Наименование органа УВД Частота
URKAFM1119,0
URKA_GNDАнапа-Руление119.0
URKA_R_APPАнапа-Круг118.7
URKA_TWRАнапа-Старт119.8



Спутниковое изображение